Regional Weather Roundup
Issued by NWS

Home | Current Version | Previous Version | Text Only | Print | Product List | Glossary On
Versions: 1 2 3 4 5 6 7 8 9 10 11 12 13 14 15 16 17 18 19 20 21 22 23 24 25 26 27 28 29 30 31 32 33 34 35 36 37 38 39 40 41 42 43 44 45 46 47 48 49 50
932
ASHW40 PHFO 260543
RWRHI

WEATHER ROUNDUP FOR HAWAII
NATIONAL WEATHER SERVICE HONOLULU HI
700 PM HST SUN JUN 25 2017

THIS IS AN AUTOMATED REPORT THAT HAS NOT BEEN QUALITY CONTROLLED.

NOTE..."FAIR" INDICATES FEW OR NO CLOUDS BELOW 12,000 FEET WITH NO
SIGNIFICANT WEATHER AND/OR OBSTRUCTIONS TO VISIBILITY.

* - THESE SITES REPORT LIMITED FIELDS

HIZ001>004-260600-
KAUAI-NIIHAU-

CITY           SKY/WX    TMP DP  RH WIND       PRES   REMARKS
LIHUE APT      PTCLDY    79  70  74 NE10      30.04S
PORT ALLEN*      N/A     81 N/A N/A NE13        N/A
POIPU*           N/A     81 N/A N/A NE6G12      N/A
PRINCEVILLE*     N/A     79 N/A N/A E7G13       N/A
KOKOLE POINT*  NOT AVBL
MOLOAA DAIRY*    N/A     75  70  83 SE3G10      N/A
WAIMEA HTS*      N/A     77  66  69 SW3         N/A
PUU OPAE*      NOT AVBL
PUU LUA*       NOT AVBL
MAKAHA RIDGE*    N/A     72  66  83 CALM        N/A
$$

HIZ005>011-260600-
OAHU-

CITY           SKY/WX    TMP DP  RH WIND       PRES   REMARKS
HONOLULU       MOCLDY    80  65  59 E12       30.01R
KALAELOA       MOCLDY    82  65  56 E5        30.02R
KANEOHE MCB    PTCLDY    81  72  74 E7        30.00
WHEELER FIELD  CLOUDY    77  67  70 NE6       30.02R
BELLOWS*         N/A    N/A N/A N/A NE13        N/A
KAHUKU*          N/A    N/A N/A N/A NE7G14      N/A
WHEELER*         N/A    N/A N/A N/A NE6G12      N/A
WAIANAE HARBOR   N/A    N/A N/A N/A NE5         N/A
DILLINGHAM*      N/A     86  73  66 NE3G12      N/A  HX  93
KAHUKU TRN*      N/A     79  70  73 W5G17       N/A
KAWAILOA*        N/A     73  66  78 E7G15       N/A
KII*             N/A     81  73  78 E12G17      N/A
MAKUA RANGE*     N/A     88  81  79 W9          N/A  HX 105
OAHU FOREST NW   N/A     72  64  78 E14G24      N/A
SCHOFIELD BRK*   N/A     82  75  78 MISG        N/A
SCHOFIELD S*   NOT AVBL
WAIANAE VLY*     N/A     72  70  94 NW3G9       N/A
KUAOKALA*        N/A     73  68  83 W3          N/A
HONOULIUULI*   NOT AVBL
MOKUOLOE IS*   NOT AVBL
PALEHUA*         N/A     68  63  83 NE9         N/A
WAIAWA PHB*    NOT AVBL
$$

HIZ012>013-260600-
MOLOKAI-

CITY           SKY/WX    TMP DP  RH WIND       PRES   REMARKS
MOLOKAI AIRPT  CLEAR     80  69  69 NW3       30.02R
KALAUPAPA      NOT AVBL
MAKAPULAPAI*     N/A     79  70  73 E17G25      N/A
MOLOKAI 1*       N/A     68  64  88 CALM        N/A
PUU ALII*        N/A     65  63  92 E2G8        N/A
$$

HIZ016-260600-
KAHOOLAWE-

CITY           SKY/WX    TMP DP  RH WIND       PRES   REMARKS
KAHOOLAWE*     NOT AVBL
HAKIOAWA*        N/A     75  68  77 MISG      30.45R
HONOKANAIA*      N/A     81  68  64 NE17G28   29.94R
KANELOA*         N/A     79  70  73 E17G30    30.08R
KEALIALALO*    NOT AVBL
LUA MAKIKA*    NOT AVBL
$$

HIZ014>015-260600-
LANAI-

CITY           SKY/WX    TMP DP  RH WIND       PRES   REMARKS
LANAI CITY     FAIR      73  68  83 N3        30.08S
LANAI 1*       NOT AVBL
$$

HIZ017>028-260600-
MAUI-

CITY           SKY/WX    TMP DP  RH WIND       PRES   REMARKS
KAHULUI        PTCLDY    82  68  62 SW8       29.99R
KAPALUA-W MAUI NOT AVBL
HANA AIRPORT   NOT AVBL
HANA*            N/A     79 N/A N/A SE5         N/A
HALEAKALA SUMM   N/A     57   9  14 SE8         N/A
MAALAEA BAY*     N/A     81 N/A N/A NE6G12      N/A
HALEAKALA*     NOT AVBL
KAUPO GAP*     NOT AVBL
KULA 1*          N/A     56  55  97 NW3G10      N/A
$$

HIZ023>026-260600-
BIG ISLAND OF HAWAII COAST AND LOWER SLOPES-

CITY           SKY/WX    TMP DP  RH WIND       PRES   REMARKS
KAILUA KONA    CLOUDY    82  69  64 SW8       29.99R
HILO           CLOUDY    78  69  73 SE5       30.04R
HONOKAA*         N/A     73 N/A N/A VRB1        N/A
KAWAIHAE MWT*    N/A     81 N/A N/A W8          N/A
KAWAIHAE*        N/A     81 N/A N/A W7        30.01R
SOUTH POINT*     N/A     73 N/A N/A N16G24      N/A
UPOLU AIRPORT* NOT AVBL
KAMUELA*       NOT AVBL
HAKALAU*         N/A     59  41  51 SW6G12      N/A
KALOKO-HONOKO*   N/A     81  70  69 SW3       29.99R
PALI 2*          N/A     66  61  82 SW12G18     N/A
KEALAKOMO*       N/A     81  64  57 NE14G21     N/A
KAUPULEHU*       N/A     75  68  78 SW6G14      N/A
KAPAPALA*        N/A     71  70  95 E3G9        N/A
LOWER KAHUKU*    N/A     64  63  94 SE2G9       N/A
PUHE CS*         N/A     81  70  69 W6G12       N/A
PUHO CS*         N/A     81  70  69 NW2         N/A
PTA KEAMUKU*   NOT AVBL
WAIKOLOA*        N/A     77  66  69 NW3         N/A
$$

HIZ027>028-260600-
BIG ISLAND OF HAWAII INTERIOR AND SUMMMITS-

CITY           SKY/WX    TMP DP  RH WIND       PRES   REMARKS
BRADSHAW FIELD PTCLDY    67  32  26 SE12G21   30.34S
MK VISITOR CEN   N/A     50  32  50 E8          N/A
MAUNA KEA*       N/A     39   9  28 NE8         N/A
MAUNA LOA*       N/A     46  37  71 MISG        N/A
MAUNA LOA 1*   NOT AVBL
PTA KIPUKA*      N/A     63  63 100 N3          N/A
PTA RANGE 17*    N/A     63  57  82 W5          N/A
PTA WEST*        N/A     64  63  94 N6          N/A
NENE CABIN*      N/A     63  34  34 NE5         N/A
AHUMOA*          N/A     55  55 100 E2          N/A
PTA PORTABLE*  NOT AVBL
PUU MALI*        N/A     59  59 100 NW2         N/A
$$

HIC003-260600-
NORTHWEST ISLANDS-

CITY           SKY/WX    TMP DP  RH WIND       PRES   REMARKS
MIDWAY ISLAND  CLOUDY    79  70  73 NE15      30.18R
MIDWAY NOS*      N/A     75 N/A N/A MISG      30.16S
FRENCH FRIGATE NOT AVBL
$$

PHZ110>124-180-260600-
BUOY REPORTS

STATION/POSITION TIME  TEMP    WIND        PRES    WAVE   SWELL
                       AIR SEA DIR/SP/G            HT/PER HT/DIR
                 (UTC) (F)     (DEG/KT/KT) (MB)    (FT/S) (FT/D)
BUOY 51001       0520   79 81   70/ 10/ 12 1017.4
BUOY 51101       0450   79 81   70/ 10/ 12 1017.7R   5/10   5/ 50
BUOY 51100       NOT AVBL
BUOY 51002       0520   79 80   80/ 14/ 17 1014.8
BUOY 51003       0450   80 81   60/ 10/ 12 1015.2R   5/12   5/150
BUOY 51004       0450      79   70/ 17/ 21 1015.0R   6/13   5/ 90
BARBERS PT BUOY  NOT AVBL
WAIMEA BAY BUOY  0502      78                N/A     4/11   2
KAILUA BAY BUOY  0504      80                N/A     5/11   2/ 60
LANAI BUOY       NOT AVBL
BARBERS PT 2     NOT AVBL
PAUWELA MAUI     0509      79                N/A     6/13   3/ 50
HILO             0527      79                N/A     5/12   3/ 60
KANEOHE BAY BUOY 0525      80                N/A     4/ 9   2/ 10
HANALEI KAUAI    0522      80                N/A     5/13   2/ 60
KAHULUI HARBOR   0506   81 81  260/  6/  9 1015.7
HONOLULU HARBOR  0506   80 81   70/  2/  4 1017.1
KILO NALU        NOT AVBL
HILO HARBOR      0506   80 79  170/  3/  5 1016.8
MOKUOLOE         0436   80 83   90/  6/  9 1016.7R
NAWILIWILI       0518   79      60/ 10/ 11 1016.9
WHOTS BUOY       NOT AVBL
BUOY 51028       NOT AVBL
$$

......................KEY........................................
  SKY/WX - SKY CONDITIONS/PRESENT WEATHER
  TMP    - TEMPERATURE IN FAHRENHEIT
  DWPT   - DEWPOINT IN FAHRENHEIT
  RH     - RELATIVE HUMIDITY IN PERCENT
  WIND   - DIRECTION AND SPEED /MPH FOR ISLANDS...KTS FOR BUOYS/
  PRES   - MEAN SEA LEVEL PRESSURE IN INCHES OF HG
  VSB    - VISIBILITY IN MILES
  HX     - HEAT INDEX
  WCI    - WIND CHILL INDEX
  VRB    - VARIABLE WIND DIRECTION
  N/A    - NOT AVAILABLE




USA.gov is the U.S. government's official web portal to all federal, state and local government web resources and services.